Main page
METAR-TAF:

METAR-TAF

Airports :

Perryton Ochiltree County Airport

Perryton, Texas, United States

latitude: 36-24N, longitude: 100-44W, elevation: 2919 ft

Current weather observation

The report was made 10 minutes ago, at 03:15 UTC
Wind 18 mph from the North
Temperature 73°F
Humidity 61%
Pressure 30.05 in. Hg
Visibility: 10 miles
Clear sky

METAR: KPYX 200315Z AUTO 35016KT 10SM CLR 23/15 A3005 RMK AO2 T02250145

Time: 22:25 (03:25 UTC)


TAF: missing

Weather observations and forecasts of more than 4000 airports (METAR and TAF reports).

The available stations are represented by yellow and red dots on the map.

Hover mouse over dot to see the name of the station.

Then click to see weather observations and forecasts.

To change the map : click on the green buttons with a black cross to zoom in, on the green button with a dash to zoom out, or on the green arrows for adjacent maps.


METAR-TAF: